Powrót do katalogu

DELTA 1 DEB

AktywnySSO
NORAD 8958·DEBRIS·🇺🇸 United States

Wystrzelony Jan 22, 1975 z Vandenberg Space Force Base

Loading…

Następne Przeloty (najbliższe 24 godziny)

TLE

ŚwieżeSource: Space-Track

Epoka: Sep 14, 2026, 06:29 UTC

1 08958U 75004AQ  26257.27053395  .00000654  00000-0  13310-3 0  9998
2 08958  98.0496 201.4536 0034286 145.0947 215.2514 14.63888277674845

Śledź DELTA 1 DEB w czasie rzeczywistym z AllMySat

Download on the App Store